Regional Weather Roundup
Issued by NWS Upton, NY

Current Version | Previous Version | Graphics & Text | Print | Product List | Glossary Off
Versions: 1 2 3 4 5 6 7 8 9 10 11 12 13 14 15 16 17 18 19 20 21 22 23 24 25 26 27 28 29 30

000
ASUS41 KOKX 210008
RWROKX

REGIONAL WEATHER ROUNDUP
NATIONAL WEATHER SERVICE NEW YORK NY
700 PM EST MON NOV 20 2017

NOTE: "FAIR" INDICATES FEW OR NO CLOUDS BELOW 12,000 FEET WITH NO
SIGNIFICANT WEATHER AND/OR OBSTRUCTIONS TO VISIBILITY.

NYZ071-072-176-178-NJZ106-104-210100-
NEW YORK CITY METRO AREA

CITY           SKY/WX    TMP DP  RH WIND       PRES   REMARKS
Central Park   CLEAR     44  25  47 VRB5      30.12R
Bronx Bot Gard   N/A     45  25  45 SW8       30.12R
LaGuardia APRT PTCLDY    46  24  42 SW12G23   30.10R
Kennedy INTL   PTCLDY    44  27  51 W22       30.12R
Breezy Point     N/A     45 N/A N/A W13G23      N/A
Newark/Liberty PTCLDY    43  24  47 SW9       30.11R
Teterboro      CLEAR     43  25  49 SW10      30.09R
$$

NYZ177-179-078>081-210100-
LONG ISLAND NEW YORK

CITY           SKY/WX    TMP DP  RH WIND       PRES   REMARKS
Jones Beach      N/A     45 N/A N/A W17G28      N/A
Matinecock PT    N/A     46 N/A N/A SW28G35     N/A
Farmingdale    CLEAR     43  26  51 W12       30.10R
MacArthur/ISP  PTCLDY    42  25  50 W12       30.10R
Shirley        PTCLDY    43  26  51 W7        30.11R
Mt Sinai Harb    N/A    N/A N/A N/A SW6G12      N/A
Westhampton    MOCLDY    42  26  53 W14       30.10R
East Hampton   CLOUDY    42  24  48 W10       30.07S
Southold       NOT AVBL
Montauk          N/A     46  27  47 W12G20    30.08R
$$

NYZ052-065-067-210100-
HUDSON VALLEY

CITY           SKY/WX    TMP DP  RH WIND       PRES   REMARKS
White Plains   CLEAR     41  24  51 SW10      30.07R
Larchmont Harb   N/A     45 N/A N/A SW20G25     N/A
Croton On Huds   N/A     45 N/A N/A SW12        N/A
Newburgh       MOCLDY    39  27  60 W8        30.06R WCI  34
Montgomery     CLEAR     33  25  72 S5        30.05R WCI  29
Poughkeepsie   CLEAR     42  24  49 SW5       30.05S
Albany         CLOUDY    38  28  67 W6        30.05R WCI  33
$$

NJZ001-105-106-008-010-013-015-019>022-104-210100-
NEW JERSEY

CITY           SKY/WX    TMP DP  RH WIND       PRES   REMARKS
Newark/Liberty PTCLDY    43  24  47 SW9       30.11R
Teterboro      CLEAR     43  25  49 SW10      30.09R
Caldwell       CLEAR     41  25  53 SW5       30.10R
Somerville     CLEAR     36  25  64 S3        30.10S
Linden         FAIR      43  23  45 CALM      30.12S
Perth Amboy      N/A     43 N/A N/A SW8         N/A
Sussex         CLEAR     37  25  61 SW5       30.07R WCI  33
Andover          N/A     39  24  55 VRB6      30.08R WCI  35
Trenton        CLEAR     42  24  49 SW6       30.12S
Millville      CLEAR     37  27  67 CALM      30.17R
Atlantic City  CLEAR     40  26  57 SW3       30.17R
Wrightstown    CLEAR     40  25  56 SW9       30.11S WCI  34
Toms River     CLEAR     38  25  59 SW8       30.15S WCI  32
Belmar         CLEAR     40  24  53 SW8       30.15R WCI  34
$$

PAZ047>061-062-071-210100-
EASTERN PENNSYLVANIA

CITY           SKY/WX    TMP DP  RH WIND       PRES   REMARKS
Philadelphia   CLEAR     44  26  49 SW7       30.15S
Allentown      CLEAR     39  23  52 SW8       30.11R WCI  33
Scranton       CLEAR     40  24  53 SW9       30.05S WCI  34
$$

CTZ002-004>006-009-010-012-RIZ004-006-007-MAZ004-011-015-210100-
SOUTHERN NEW ENGLAND
 IN CT

CITY           SKY/WX    TMP DP  RH WIND       PRES   REMARKS
Bradley INTL   CLOUDY    41  25  53 NW5       30.04R
Hartford       CLOUDY    44  26  49 CALM      30.05R
Danbury        CLEAR     41  24  51 SW5       30.07R
Wtrbury/Oxford CLOUDY    40  24  53 SW6       30.04S
Norwalk Harbor   N/A     43 N/A N/A SW18        N/A
Bridgeport     CLEAR     45  26  47 W10G20    30.08R
Meriden        CLOUDY    43  24  47 SW5       30.06R
New Haven      CLOUDY    46  27  47 W8        30.07R
Chester        CLOUDY    43  23  45 W5        30.05R
Groton         CLOUDY    45  24  43 W13G21    30.06R
Wilimantic     CLOUDY    43  24  47 SW6       30.05R

 IN RI

CITY           SKY/WX    TMP DP  RH WIND       PRES   REMARKS
Providence     CLOUDY    42  24  49 W12G24    30.04R
Block Island   NOT AVBL
Westerly       CLOUDY    44  24  45 W7        30.06R
 IN MA

CITY           SKY/WX    TMP DP  RH WIND       PRES   REMARKS
Boston         PTCLDY    40  22  48 SW12      29.99R WCI  33
Worcester      CLEAR     34  22  61 W15       29.96R WCI  24
Westfield      CLOUDY    39  26  59 S6        30.04R WCI  35
Provincetown   CLEAR     40  25  55 SW18G25   30.00R WCI  31
Nantucket      MOCLDY    45  26  47 W24G33    30.03R
$$

ANZ330-335-338-340-345-350-353-355-210100-
COASTAL MARINE OBSERVATIONS


STATION/POSITION TIME  SKY/WX   TEMP    WIND        PRES    VSBY  WAVE
                                AIR SEA DIR/SP/G                  HT/PER
                 (UTC)          (F)     (DEG/KT/KT) (MB)    (MI)  (FT/S)
NY HARB ENTRANCE 2250            47 58  250/ 19/ 23 1018.9          3/ 4
20 S FIRE ISLAND 2250            48 57  270/ 21/ 25 1019.4          6/ 5
GREAT SOUTH BAY  2330            45 47  260/ 16/ 21   N/A
HUDSON CANYON    2250            49 59  270/ 21/ 27 1019.8          7/ 6
KINGS POINT      2330            46 51  280/ 16/ 20 1019.7
EXECUTION ROCKS  2330            47     220/ 17/ 23   N/A
WESTERN LI SOUND 2319            47     250/ 21/ 27   N/A           2/ 3
CENTRAL LI SOUND NOT AVBL
ROBBINS REEF     2330            45     250/ 19/ 22 1020.0
$$


>>>>>>>>>>>>>>>>>>>>>>>>>>>> KEY <<<<<<<<<<<<<<<<<<<<<<<<<<<
>                                                          <
>     SKY/WX - Sky Condition/Present Weather               <
>     TMP    - Temperature in Fahrenheit                   <
>     DP     - Dew Point in Fahrenheit                     <
>     RH     - Relative Humidity in Percent                <
>     WIND   - Direction (from) and Speed in MPH           <
>     PRES   - Mean Sea Level Pressure (inches of Hg)      <
>     WCI    - Wind Chill Index                            <
>     VSB    - VISIBILITY IN MILES                         <
>     HX     - HEAT INDEX                                  <
>     TC     - TEMPERATURE IN CELSIUS                      <
>     VRB    - VARIABLE WIND DIRECTION                     <
>                                                          <
>>>>>>>>>>>>>>>>>>>>>>>>>>>> KEY <<<<<<<<<<<<<<<<<<<<<<<<<<<




USA.gov is the U.S. government's official web portal to all federal, state and local government web resources and services.